Hoolehua, HI

9:26 PM HST on July 24, 2016 (GMT -1000)
Molokai

Weather History for PHMK - December, 2012

Change the Weather History Date:

Wednesday, December 19, 2012

  Actual Average Record
Temperature  
Mean Temperature 74 °F -  
Max Temperature 78 °F 79 °F 85 °F (1979)
Min Temperature 70 °F 64 °F 57 °F (1973)
Cooling Degree Days 9    
Growing Degree Days 24 (Base 50)    
Moisture  
Dew Point 64 °F    
Average Humidity 73    
Maximum Humidity 79    
Minimum Humidity 62    
Precipitation  
Precipitation 0.01 in - - ()
Sea Level Pressure  
Sea Level Pressure 30.04 in    
Wind  
Wind Speed 14 mph (NE)    
Max Wind Speed 24 mph    
Max Gust Speed 36 mph    
Visibility 10 miles    
Events Rain    
Averages and records for this station are not official NWS values.
T = Trace of Precipitation, MM = Missing Value Source: NWS Daily Summary

Daily Weather History Graph

Daily Weather History Graph

Search for Another Location

Airport or City:

Trip Planner

Search our weather history database for the weather conditions in past years. The results will help you decide how hot, cold, wet, or windy it might be!

Date:

Astronomy

Dec. 19, 2012 Rise Set
Actual Time 7:00 AM HST 5:51 PM HST
Civil Twilight 6:36 AM HST 6:15 PM HST
Nautical Twilight 6:08 AM HST 6:43 PM HST
Astronomical Twilight 5:41 AM HST 7:10 PM HST
Moon 12:04 PM HST (12/19) No Moon Set
Length of Visible Light 11h 39m
Length of Day
10h 50m
Waxing Crescent, 47% of the Moon is Illuminated
Dec 19
Waxing Crescent
Dec 19
First Quarter
Dec 28
Full
Jan 4
Last Quarter
Jan 11
New

Hourly Weather History & Observations

Time (HST) Temp. Dew Point Humidity Pressure Visibility Wind Dir Wind Speed Gust Speed Precip Events Conditions
12:54 AM 72.0 °F 60.1 °F 66% 30.06 in 10.0 mi NNE 10.4 mph - N/A   Clear
1:54 AM 70.0 °F 60.1 °F 71% 30.07 in 10.0 mi ENE 5.8 mph - N/A   Clear
2:54 AM 72.0 °F 62.1 °F 71% 30.05 in 10.0 mi NE 8.1 mph - N/A   Clear
3:54 AM 72.0 °F 63.0 °F 73% 30.03 in 10.0 mi NNE 10.4 mph - N/A   Clear
4:54 AM 72.0 °F 64.9 °F 78% 30.02 in 10.0 mi NNE 10.4 mph 18.4 mph N/A   Clear
5:54 AM 71.1 °F 64.0 °F 78% 30.04 in 10.0 mi NNE 13.8 mph 19.6 mph N/A   Partly Cloudy
6:54 AM 72.0 °F 64.0 °F 76% 30.06 in 10.0 mi NNE 16.1 mph 24.2 mph N/A   Scattered Clouds
7:54 AM 73.0 °F 64.9 °F 76% 30.08 in 10.0 mi NE 15.0 mph 25.3 mph 0.00 in Rain Light Rain
8:54 AM 75.0 °F 64.0 °F 69% 30.07 in 10.0 mi NE 16.1 mph 28.8 mph 0.00 in Rain Light Rain
9:54 AM 75.0 °F 64.9 °F 71% 30.08 in 8.0 mi NE 15.0 mph 35.7 mph 0.00 in Rain Rain
10:54 AM 78.1 °F 64.0 °F 62% 30.06 in 10.0 mi NE 16.1 mph 25.3 mph 0.00 in   Scattered Clouds
11:54 AM 78.1 °F 64.9 °F 64% 30.04 in 10.0 mi NE 18.4 mph 33.4 mph N/A   Partly Cloudy
12:54 PM 75.0 °F 66.0 °F 73% 30.02 in 7.0 mi NE 19.6 mph 29.9 mph 0.00 in Rain Light Rain
1:54 PM 75.0 °F 66.0 °F 73% 30.01 in 10.0 mi NE 19.6 mph 28.8 mph 0.00 in   Mostly Cloudy
2:54 PM 73.0 °F 66.0 °F 79% 30.00 in 7.0 mi NE 17.3 mph 27.6 mph 0.00 in Rain Light Rain
3:54 PM 73.9 °F 64.9 °F 73% 29.99 in 10.0 mi NE 15.0 mph 28.8 mph 0.01 in   Mostly Cloudy
4:32 PM 73.4 °F 64.4 °F 73% 30.00 in 10.0 mi ENE 16.1 mph 27.6 mph N/A   Mostly Cloudy
4:42 PM 73.4 °F 64.4 °F 73% 30.00 in 10.0 mi NE 17.3 mph 28.8 mph N/A   Mostly Cloudy
4:54 PM 75.0 °F 64.9 °F 71% 30.01 in 10.0 mi NE 11.5 mph 28.8 mph N/A   Scattered Clouds
5:54 PM 73.0 °F 64.0 °F 73% 30.01 in 10.0 mi NE 15.0 mph 32.2 mph 0.00 in Rain Light Rain
6:54 PM 73.0 °F 64.0 °F 73% 30.02 in 10.0 mi NE 20.7 mph 34.5 mph 0.00 in   Scattered Clouds
7:34 PM 73.4 °F 64.4 °F 73% 30.03 in 10.0 mi NE 15.0 mph 28.8 mph N/A   Mostly Cloudy
7:54 PM 73.0 °F 64.0 °F 73% 30.04 in 10.0 mi ENE 19.6 mph 28.8 mph N/A   Mostly Cloudy
8:03 PM 71.6 °F 62.6 °F 73% 30.03 in 10.0 mi ENE 24.2 mph 32.2 mph N/A   Scattered Clouds
8:52 PM 71.6 °F 64.4 °F 78% 30.06 in 10.0 mi ENE 18.4 mph 26.5 mph N/A   Mostly Cloudy
8:54 PM 72.0 °F 64.0 °F 76% 30.07 in 10.0 mi NE 16.1 mph 26.5 mph N/A   Mostly Cloudy
9:04 PM 71.6 °F 64.4 °F 78% 30.07 in 10.0 mi ENE 12.7 mph 24.2 mph N/A   Scattered Clouds
9:54 PM 72.0 °F 63.0 °F 73% 30.08 in 10.0 mi NE 16.1 mph 25.3 mph N/A   Mostly Cloudy
10:54 PM 72.0 °F 62.1 °F 71% 30.08 in 10.0 mi NE 19.6 mph 31.1 mph N/A   Clear
11:47 PM 71.6 °F 64.4 °F 78% 30.06 in 10.0 mi NE 15.0 mph 27.6 mph 0.00 in   Mostly Cloudy
11:54 PM 72.0 °F 64.0 °F 76% 30.06 in 10.0 mi NE 15.0 mph 25.3 mph 0.00 in   Scattered Clouds